Wetbulb
33.90 34.26 34.77 35.19 35.25 34.67 34.17 34.63 35.64 35.44 34.60 33.30 32.77 32.60 32.51 32.41 32.21 32.29 32.44 32.33 32.40 32.53 32.74 33.11 33.41 32.99 32.50 32.20 32.33 32.13 31.86 31.79 32.25 33.44 34.08 32.88 32.02 31.69 31.71 31.96 32.11 32.57 32.99 33.40 33.68 33.80 33.85 33.72 34.39 35.20 35.67 35.62 35.46 35.41 35.61 35.96 35.77 35.77 35.87 36.08 36.37 36.21 36.03 36.13 36.50 36.74 37.14 37.67 38.45
33.69 34.22 35.23 37.01 36.38 35.17 34.23 34.46 34.76 34.69 34.21 33.38 33.01 32.55 32.33 32.47 32.33 32.13 32.07 31.83 32.50 32.73 32.93 33.42 33.32 32.57 31.90 31.97 32.20 31.97 31.69 31.63 31.77 32.21 32.41 32.03 31.50 31.33 31.48 31.66 31.74 32.27 32.77 32.84 33.21 33.60 33.73 33.02 33.65 34.54 35.11 35.14 35.03 35.05 35.39 35.82 35.56 35.16 34.89 34.73 35.61 35.96 36.01 36.17 36.21 36.22 36.50 37.11 37.52
33.36 33.49 33.73 33.99 33.49 33.40 33.34 33.34 32.87 32.35 32.04 32.31 32.61 32.57 32.49 32.48 32.57 32.36 32.16 32.03 32.00 32.33 32.71 33.24 32.86 32.51 32.05 31.46 31.53 31.60 31.72 31.79 31.59 31.40 31.32 31.45 31.46 31.55 31.58 31.59 31.45 32.01 32.62 32.89 33.06 33.34 33.36 32.63 33.51 34.49 35.07 34.69 34.50 34.69 34.98 35.13 35.33 34.99 34.39 33.97 35.31 35.95 36.07 36.40 35.97 36.10 36.61 37.26 37.04
32.86 32.89 32.71 32.53 32.31 32.22 32.33 32.78 32.15 31.70 31.75 32.43 32.11 32.20 32.38 32.58 32.60 32.45 32.10 31.63 31.56 31.94 32.30 32.34 32.04 32.06 31.89 31.38 31.31 31.47 32.16 33.58 32.65 31.63 30.99 31.17 31.23 31.32 31.27 31.17 31.36 31.30 31.42 31.92 32.23 32.50 32.57 32.33 33.31 34.00 33.97 32.71 32.79 33.73 34.70 35.30 34.71 34.48 34.30 33.84 34.86 35.27 35.57 35.99 35.87 36.25 36.68 36.79 36.68
32.52 32.49 32.41 32.36 32.26 32.15 32.02 31.94 31.71 31.61 31.81 32.24 32.21 32.29 32.41 32.56 32.41 31.97 31.62 31.81 31.71 31.91 32.01 31.73 31.43 31.53 31.71 31.47 31.28 31.30 31.78 32.83 34.03 32.52 30.66 30.76 30.86 30.91 31.01 31.05 30.96 30.84 30.82 31.16 31.42 31.91 32.21 31.96 33.16 33.32 32.99 32.24 33.04 33.70 33.98 33.90 33.81 33.70 33.72 34.09 34.66 35.06 35.27 35.53 35.61 35.80 36.15 36.49 36.58
32.09 32.09 32.07 32.05 32.22 32.22 32.10 32.10 31.81 31.72 31.74 31.99 31.53 31.25 31.33 31.96 31.85 31.49 31.24 31.16 31.22 31.36 31.99 32.96 32.60 32.57 32.31 31.21 31.13 31.17 31.23 31.20 31.50 31.11 30.62 30.41 30.49 30.62 30.57 30.52 30.22 30.04 30.09 30.39 30.68 31.04 31.32 31.24 32.98 33.40 33.31 33.23 32.50 32.69 33.29 33.80 33.59 33.28 32.98 33.27 34.02 34.40 34.67 34.58 35.00 35.05 35.02 35.20 35.32
32.00 31.82 31.74 31.71 31.91 32.07 32.20 32.20 31.97 31.84 31.59 31.40 30.80 30.54 30.52 30.71 30.47 30.28 30.26 30.59 30.94 31.54 32.38 33.35 32.31 31.66 31.11 30.60 30.76 30.86 30.96 30.90 30.65 30.62 30.66 30.59 30.57 30.42 30.26 30.12 29.95 29.83 29.70 29.62 29.83 30.14 30.51 30.67 32.41 33.54 34.21 34.73 34.12 33.49 33.29 33.95 33.64 33.14 32.67 32.47 33.43 33.74 33.74 33.38 34.06 34.19 34.02 33.52 33.65
32.25 32.05 31.88 31.67 31.70 31.78 31.90 32.03 31.75 31.55 31.49 31.48 30.67 30.43 30.39 30.25 30.01 30.09 30.22 30.47 30.66 31.18 31.64 31.81 30.53 30.07 30.22 30.20 30.27 30.38 30.40 30.30 30.37 30.47 30.61 30.60 30.41 30.17 29.92 29.80 29.70 29.70 29.54 29.32 29.38 29.50 29.85 30.61 32.02 32.46 32.64 33.29 33.92 33.71 33.32 33.40 33.14 32.84 32.40 31.91 32.89 33.20 32.98 32.73 32.94 33.14 33.21 32.71 32.63
32.18 32.03 31.95 31.88 31.81 31.64 31.63 31.55 31.45 31.42 31.17 30.68 30.48 30.52 30.68 30.75 30.27 30.11 30.11 30.38 31.27 31.45 31.13 30.63 30.23 30.08 30.09 29.95 29.90 29.89 29.89 29.79 29.74 29.77 29.95 30.11 29.85 29.68 29.51 29.48 29.38 29.33 29.39 29.32 29.20 29.18 29.42 30.33 31.32 31.64 31.95 32.83 33.13 33.11 32.76 32.28 32.28 32.28 32.19 32.13 32.60 32.62 32.47 32.45 32.27 32.27 32.27 32.04 31.82
31.85 31.59 31.50 31.59 31.74 31.76 31.72 31.39 31.34 31.22 30.84 30.26 30.32 30.83 31.82 33.34 31.60 30.56 30.30 31.15 31.46 30.92 30.24 29.88 29.89 29.80 29.73 29.57 29.59 29.48 29.51 29.51 29.39 29.26 29.38 29.79 29.84 29.30 28.84 28.80 28.76 28.80 28.91 28.98 28.99 29.03 29.22 29.77 29.72 29.96 30.41 31.21 31.17 31.15 31.19 31.39 31.32 31.29 31.71 32.92 32.56 32.02 31.69 32.00 32.13 32.07 31.88 31.79 31.28
31.88 31.47 31.22 31.20 31.65 31.82 31.83 31.45 31.50 31.31 30.88 30.27 30.11 30.42 31.16 32.22 31.12 30.88 31.04 31.18 30.35 29.84 29.61 29.67 29.55 29.40 29.29 29.28 29.33 29.48 29.57 29.19 29.08 28.89 28.85 28.95 29.41 28.90 28.29 28.40 28.31 28.27 28.33 28.46 28.54 28.57 28.65 29.01 28.58 28.52 29.12 30.12 30.41 30.56 30.70 30.96 30.83 30.62 30.62 31.21 31.24 31.20 31.23 31.69 31.69 31.89 31.98 31.62 31.24
32.46 31.88 31.49 31.32 31.40 31.47 31.50 31.27 31.22 31.08 30.71 30.27 29.92 29.74 29.78 29.77 30.10 30.77 31.00 30.06 29.82 29.63 29.61 29.65 29.46 29.20 29.04 28.99 29.22 29.74 29.90 28.82 28.75 28.82 28.69 28.39 28.26 28.20 28.14 28.12 28.01 27.92 27.88 28.01 28.12 28.12 28.14 27.84 27.66 27.80 28.24 29.05 29.55 30.05 30.32 30.32 30.39 30.15 30.02 30.10 30.15 30.24 30.31 30.54 30.89 31.53 31.93 31.71 31.61
33.07 32.53 32.08 31.75 31.46 31.38 31.34 31.04 30.93 30.64 30.31 29.96 29.63 29.45 29.50 29.73 30.63 30.77 30.29 29.39 29.81 29.57 29.44 29.81 30.01 29.53 28.93 28.78 28.87 28.86 28.76 28.64 28.53 28.73 28.79 28.35 28.18 28.04 28.01 27.91 27.72 27.71 27.62 27.68 27.67 27.71 27.49 27.15 27.24 27.38 27.62 28.21 28.87 29.45 29.93 29.86 29.80 29.67 29.51 29.47 29.51 29.53 29.53 29.67 30.13 30.57 30.95 31.06 31.29
33.25 32.90 32.49 32.11 31.84 31.56 31.27 30.90 30.81 30.61 30.16 29.65 29.44 29.29 29.28 29.49 30.68 30.69 30.02 29.13 29.06 28.98 28.99 29.38 30.12 30.13 29.64 28.90 28.73 28.72 28.63 28.49 28.40 28.29 28.25 28.63 28.14 27.89 27.80 27.62 27.53 27.40 27.36 27.39 27.42 27.26 27.07 26.96 27.07 27.19 27.46 27.81 28.19 28.72 29.18 29.31 29.25 29.25 29.20 29.04 28.93 28.96 29.11 29.35 29.50 29.72 29.95 30.13 30.22
33.34 33.19 32.80 32.50 31.92 31.56 31.09 30.48 30.72 30.54 30.14 29.53 29.34 29.16 29.10 28.99 30.29 30.59 30.06 28.87 28.78 28.76 28.77 28.73 29.22 29.95 30.44 29.88 29.03 28.73 28.66 28.54 28.26 28.06 28.11 28.44 27.89 27.70 27.59 27.52 27.56 27.33 27.17 27.13 27.16 27.11 27.02 27.04 27.11 27.28 27.51 27.72 28.04 28.31 28.53 28.76 28.87 28.93 28.83 28.78 28.78 28.80 28.92 29.04 29.19 29.28 29.41 29.49 29.35
33.35 33.19 32.88 32.40 31.83 31.25 30.69 30.06 30.33 30.22 29.91 29.45 29.20 28.99 28.83 28.72 29.44 30.10 30.15 29.09 28.71 28.70 28.65 28.46 28.44 28.74 29.36 30.55 29.96 29.22 28.52 28.32 28.02 27.75 27.54 27.41 27.40 27.33 27.29 27.29 27.50 27.33 27.01 27.07 26.97 26.88 26.94 27.19 27.25 27.42 27.54 27.70 27.97 28.05 28.23 28.36 28.51 28.58 28.71 28.67 28.66 28.64 28.81 29.19 29.37 29.12 28.95 29.15 29.30
33.25 33.06 32.66 32.12 31.70 30.95 30.22 29.61 29.72 29.74 29.56 29.14 28.90 28.74 28.65 28.53 28.77 29.79 30.46 29.96 28.83 28.44 28.35 28.22 28.31 28.26 28.61 29.63 30.08 29.62 28.77 27.80 27.69 27.54 27.37 27.28 27.24 27.20 27.08 26.98 27.44 27.36 27.08 26.85 26.72 26.63 26.68 26.83 27.08 27.30 27.56 27.75 27.84 27.93 28.10 28.22 28.20 28.37 28.48 28.62 28.56 28.51 28.77 29.85 29.67 29.12 28.69 28.97 29.54
33.00 32.77 32.46 31.93 31.42 30.78 30.14 29.57 29.42 29.22 29.00 28.73 28.52 28.53 28.54 28.61 28.59 29.14 29.80 30.20 28.77 28.09 27.98 28.06 28.24 28.14 28.11 28.13 28.61 29.21 29.11 27.60 27.40 27.33 27.25 27.21 27.26 27.23 27.00 26.85 27.40 27.35 27.03 26.69 26.81 26.92 26.85 26.57 26.81 27.02 27.30 27.54 27.67 27.87 28.00 28.06 28.02 28.11 28.22 28.35 28.38 28.46 28.57 29.14 28.99 28.83 28.63 28.72 29.59
32.59 32.47 32.14 31.75 31.34 30.97 30.67 30.41 29.69 29.17 28.81 28.63 28.51 28.53 28.66 28.63 28.57 28.60 28.81 29.21 29.16 28.48 27.89 27.81 27.84 27.84 27.81 27.68 27.60 28.70 29.33 28.16 27.39 27.15 27.18 27.10 27.15 27.10 26.97 26.81 26.99 26.99 26.85 26.63 26.68 26.70 26.65 26.48 26.74 26.93 27.07 27.35 27.40 27.57 27.74 27.80 27.76 27.76 27.83 27.92 28.03 28.15 28.26 28.34 28.50 28.70 28.75 28.80 29.29
32.25 32.15 31.90 31.65 31.32 31.10 30.87 30.52 29.63 29.10 28.80 28.61 28.61 28.53 28.54 28.61 28.64 28.54 28.40 28.45 29.07 28.73 27.92 27.60 27.45 27.34 27.34 27.21 27.13 27.78 28.54 28.59 27.42 27.05 27.05 26.94 26.94 26.89 26.78 26.67 26.69 26.76 26.82 26.73 26.45 26.14 26.06 26.19 26.65 26.85 27.08 27.54 27.60 27.44 27.40 27.46 27.46 27.40 27.40 27.42 27.49 27.70 27.86 28.08 28.27 28.45 28.60 28.66 28.67
32.06 31.97 31.88 31.72 31.32 30.87 30.41 29.90 29.28 28.74 28.53 28.38 28.32 28.38 28.38 28.47 28.40 28.38 28.39 28.73 29.02 28.45 27.72 27.45 27.16 26.91 26.80 26.68 26.60 26.87 27.45 28.72 27.45 26.94 26.94 27.11 27.40 27.37 27.31 27.49 26.88 26.72 26.68 26.64 26.40 26.17 26.10 26.27 26.69 27.04 27.34 27.75 27.73 27.54 27.37 27.25 27.08 26.98 26.92 26.96 27.08 27.21 27.43 27.56 27.86 28.06 28.18 28.33 28.53
31.97 32.06 32.03 31.87 31.34 30.93 30.33 29.63 28.90 28.40 28.14 27.98 28.03 28.14 28.20 28.26 28.22 28.30 28.56 28.99 28.75 28.10 27.48 27.30 27.08 26.80 26.59 26.52 26.56 26.68 27.16 28.37 27.44 27.37 27.43 27.27 27.32 27.58 27.87 27.97 26.89 26.42 26.26 26.15 26.00 26.17 26.57 27.04 27.27 27.48 27.62 27.63 27.31 27.44 27.66 27.70 27.16 26.75 26.62 26.60 26.68 26.80 26.95 27.09 27.29 27.55 27.74 28.00 28.13
32.09 32.13 32.08 31.94 31.72 31.66 31.25 29.84 28.73 28.13 27.80 27.67 27.80 27.89 27.93 28.12 28.24 28.22 28.27 28.10 28.63 28.28 27.63 27.36 27.46 27.20 26.94 26.74 26.83 26.90 26.98 27.23 27.01 27.28 27.41 26.84 26.69 26.90 27.14 27.12 26.43 26.07 25.89 25.98 26.17 26.36 26.70 27.19 27.59 27.67 27.58 27.52 27.23 27.29 27.50 27.72 27.51 26.99 26.53 26.44 26.44 26.42 26.59 26.70 26.84 27.05 27.20 27.41 27.67
32.23 32.16 32.23 32.04 31.43 30.97 30.38 29.38 28.54 27.95 27.58 27.43 27.49 27.66 27.84 27.94 28.00 28.00 27.89 27.75 27.88 27.86 27.72 27.63 28.01 27.86 27.59 27.25 27.29 27.33 27.08 26.74 26.51 26.43 26.47 26.38 26.30 26.30 26.30 26.24 26.07 26.02 26.26 26.85 28.54 29.40 29.50 29.29 28.43 28.11 28.08 28.00 27.83 27.75 27.64 27.70 27.28 27.00 26.74 26.76 26.66 26.51 26.46 26.45 26.57 26.64 26.73 26.77 27.10
32.24 32.26 32.12 31.62 30.92 30.34 29.72 29.05 28.15 27.70 27.41 27.27 27.35 27.47 27.68 27.85 27.95 27.85 27.62 27.57 27.61 27.72 27.70 27.50 27.67 27.73 27.62 27.57 27.57 27.40 27.16 26.51 26.43 26.09 25.81 25.86 25.98 25.95 25.91 25.87 25.93 26.30 27.33 29.56 33.45 35.21 35.53 34.77 32.69 30.71 29.13 28.30 28.22 28.24 28.09 27.87 27.61 27.44 27.38 27.50 27.37 27.12 26.78 26.39 26.28 26.20 26.24 26.18 26.31
32.19 31.98 31.65 30.98 30.59 30.05 29.30 28.71 28.08 27.71 27.58 27.54 27.56 27.53 27.56 27.78 28.12 27.78 27.36 27.38 27.49 27.58 27.45 27.18 27.24 28.06 28.80 28.11 27.54 27.11 26.68 26.27 26.26 25.93 25.55 25.52 25.56 25.61 25.65 25.55 26.04 26.60 28.41 32.39 34.98 36.20 36.75 37.13 36.79 34.89 31.90 28.54 28.30 28.27 28.23 27.92 27.93 27.80 27.73 27.57 27.61 27.32 27.02 26.88 26.34 26.13 26.09 26.06 25.85
31.87 31.46 31.04 30.63 30.20 29.65 29.06 28.58 28.17 27.94 27.74 27.62 27.53 27.52 27.59 27.81 27.61 27.48 27.37 27.34 27.42 27.38 27.32 27.17 27.15 29.27 30.75 28.89 27.49 26.58 26.14 26.04 25.90 25.66 25.46 25.32 25.28 25.28 25.36 25.49 25.96 27.06 29.45 33.63 35.50 36.37 36.87 37.28 37.51 36.89 35.04 31.06 29.17 28.35 28.14 27.89 27.89 27.91 27.94 27.58 27.28 27.06 26.85 26.77 26.68 26.70 26.58 26.27 25.81
31.33 30.97 30.65 30.29 29.78 29.37 28.91 28.57 28.19 27.80 27.59 27.56 27.60 27.80 27.98 28.00 27.69 27.42 27.40 27.43 27.40 27.35 27.41 27.52 28.21 29.01 29.03 27.38 26.36 25.97 25.87 25.91 25.91 25.77 25.69 25.72 25.94 25.66 25.28 25.27 25.35 27.61 31.18 35.14 35.91 36.39 36.80 37.17 37.47 37.46 36.74 34.38 30.31 28.73 28.35 27.84 27.88 27.83 27.73 27.69 27.37 27.00 26.80 26.95 27.28 27.43 27.28 26.70 26.46
30.90 30.70 30.44 29.93 29.53 29.32 29.11 28.75 28.29 27.94 27.84 27.72 27.95 28.26 28.37 28.01 27.70 27.56 27.42 27.37 27.36 27.35 27.18 27.11 28.31 27.80 26.52 25.78 25.68 25.82 25.99 25.89 25.78 25.75 25.58 25.48 25.41 25.29 25.25 25.35 25.64 28.45 32.28 35.64 35.97 36.27 36.68 36.98 37.23 37.46 37.37 36.79 33.10 30.22 28.44 27.86 27.72 27.63 27.61 27.95 27.56 27.35 27.21 27.36 27.60 27.77 27.69 27.48 27.58
30.89 30.64 30.26 29.69 29.45 29.32 29.24 28.90 28.48 28.27 28.12 28.12 28.30 28.18 27.89 27.50 27.43 27.25 27.17 27.03 27.17 27.40 27.39 26.70 26.57 26.02 25.48 25.51 25.66 25.70 25.60 25.42 25.39 25.31 25.07 24.68 24.73 24.86 25.44 26.92 25.99 28.16 31.88 35.58 35.95 36.30 36.60 36.78 37.07 37.22 37.33 37.32 35.07 31.72 28.82 27.80 27.45 27.36 27.60 28.00 27.49 27.07 27.00 27.25 27.17 27.22 27.41 27.98 27.98
30.81 30.53 30.07 29.55 29.37 29.29 29.17 28.90 28.71 28.47 28.27 28.10 27.97 27.64 27.28 26.90 26.92 27.05 27.18 27.14 27.43 28.24 28.48 27.25 26.06 25.60 25.65 25.84 25.69 25.39 25.19 24.99 24.91 24.86 24.70 24.48 26.18 26.35 25.86 25.52 25.49 28.05 31.84 35.45 35.82 36.21 36.44 36.66 36.84 37.02 37.13 37.25 35.74 32.43 29.11 27.87 27.34 27.19 27.35 27.62 27.24 27.06 27.06 27.21 27.09 27.09 27.17 27.21 27.46
30.62 30.22 29.83 29.45 29.17 29.11 28.97 28.91 28.68 28.28 27.84 27.55 27.37 27.17 27.03 26.77 26.99 27.23 27.35 27.52 27.56 27.54 27.30 26.54 25.86 25.56 25.56 25.66 25.35 25.08 24.91 24.75 24.78 24.90 25.07 25.14 25.05 25.02 25.15 25.64 25.34 27.95 31.78 35.21 35.67 36.01 36.35 36.61 36.76 36.90 37.01 37.09 35.97 32.61 29.07 27.78 27.21 26.93 26.91 26.83 26.64 26.57 26.81 27.50 27.50 27.09 26.75 26.97 27.10
30.20 29.88 29.53 29.32 29.08 29.03 28.92 28.78 28.44 27.90 27.50 27.21 27.14 27.04 27.01 26.97 27.08 27.03 27.02 27.39 27.36 26.68 25.90 25.61 25.25 25.07 25.00 24.97 24.86 24.70 24.77 25.17 25.91 26.70 27.21 27.06 25.97 25.40 25.39 26.15 25.48 28.67 32.85 35.20 35.54 35.85 36.16 36.38 36.60 36.71 36.82 36.98 35.27 32.04 28.81 27.44 26.96 26.80 26.70 26.57 26.53 26.42 26.48 26.42 26.92 27.03 26.88 26.81 27.10
29.74 29.51 29.28 29.15 29.17 29.04 28.83 28.46 28.03 27.70 27.40 27.10 27.06 27.12 27.12 27.09 26.95 26.89 27.06 27.88 27.29 26.44 25.67 25.31 25.10 24.98 24.79 24.76 24.65 24.62 25.17 26.66 26.15 25.64 25.40 25.58 25.28 25.35 25.42 25.15 25.11 29.24 33.70 35.09 35.39 35.73 35.96 36.15 36.29 36.51 36.66 36.77 34.29 31.12 28.32 27.10 26.76 26.53 26.53 26.51 26.48 26.51 26.51 26.43 26.55 26.73 26.84 26.71 27.24
29.38 29.21 29.09 29.00 29.07 28.96 28.71 28.18 27.75 27.48 27.32 27.06 27.06 27.22 27.39 27.33 27.12 27.06 27.37 28.39 27.81 26.51 25.35 25.28 25.25 25.20 25.08 24.95 24.86 24.98 25.35 25.81 24.90 24.56 24.65 24.72 24.73 25.23 25.60 25.39 25.81 29.65 33.64 34.87 35.15 35.42 35.61 35.87 36.01 36.20 36.22 35.84 32.77 29.89 27.66 26.63 26.36 26.18 26.14 26.22 26.30 26.28 26.22 26.32 26.65 26.83 26.95 26.95 27.15
29.36 29.20 29.02 28.90 28.88 28.72 28.43 27.92 27.55 27.29 27.25 27.09 27.21 27.42 27.50 27.39 26.97 26.99 27.51 28.75 27.62 26.19 25.20 25.12 25.17 25.00 24.88 24.82 24.58 25.51 25.95 24.45 24.07 23.98 24.29 25.04 24.94 24.77 24.75 24.99 25.61 29.14 32.93 34.60 34.79 35.10 35.33 35.55 35.76 35.95 35.62 34.33 31.01 28.67 27.23 26.60 26.56 26.18 25.85 25.84 26.10 26.18 26.17 26.27 26.68 26.92 27.16 27.28 27.11
29.48 29.34 29.10 28.98 28.80 28.47 28.11 27.74 27.46 27.33 27.21 27.25 27.46 27.47 27.35 27.09 26.60 26.63 27.10 27.99 26.19 25.28 25.00 24.96 24.93 24.83 24.70 24.62 24.47 25.07 25.55 24.98 24.66 24.46 24.81 25.86 25.40 24.77 24.40 24.80 24.89 27.55 31.26 33.99 34.55 34.77 35.07 35.30 35.56 35.59 34.85 32.59 29.58 27.97 27.16 26.80 26.67 26.26 25.81 25.59 25.82 25.80 25.93 26.50 26.71 26.87 26.87 26.87 27.50
29.59 29.51 29.41 29.11 28.81 28.45 28.15 27.82 27.58 27.37 27.24 27.39 27.47 27.28 26.96 26.59 26.25 26.40 26.92 27.81 25.71 24.83 24.67 24.66 24.62 24.54 24.53 24.60 24.67 24.78 24.94 25.01 25.54 25.22 24.77 24.85 24.68 24.50 24.47 24.62 24.72 26.55 29.63 33.09 34.13 34.66 34.87 35.17 35.43 35.42 34.43 31.89 29.00 27.70 27.17 26.88 26.21 25.92 25.84 25.94 25.99 25.78 25.82 26.84 27.12 27.03 26.91 26.76 29.58
29.53 29.52 29.40 29.11 28.72 28.51 28.28 28.00 27.78 27.52 27.44 27.50 27.29 27.01 26.66 26.48 26.07 26.38 27.00 27.51 25.62 24.78 24.39 24.21 24.14 24.17 24.64 25.56 25.11 24.59 24.35 24.47 25.27 25.54 25.14 23.96 24.22 25.50 26.38 25.44 25.09 26.42 29.01 32.60 33.95 34.54 34.78 35.01 35.24 35.38 34.73 32.89 29.61 27.85 27.06 26.56 25.64 25.43 25.52 25.76 25.95 25.64 25.59 26.30 26.76 26.95 27.04 26.89 30.93
29.39 29.27 29.07 28.80 28.65 28.54 28.25 27.96 27.79 27.90 27.90 27.74 27.25 26.86 26.80 26.91 26.94 27.27 27.39 26.74 25.43 24.74 24.29 23.94 23.93 24.26 25.18 26.91 25.55 24.39 23.76 23.81 23.94 24.42 24.82 24.70 25.35 27.67 29.06 26.91 25.63 26.27 28.44 32.01 33.60 34.28 34.58 34.82 35.04 35.19 34.74 32.85 29.36 27.60 26.80 26.06 25.39 25.14 25.14 25.40 25.64 25.69 25.69 25.80 26.36 26.70 26.87 26.60 29.37
29.08 28.92 28.83 28.70 28.59 28.45 28.17 27.83 28.00 28.20 28.18 27.89 27.50 27.40 27.63 28.08 27.46 26.90 26.31 25.43 24.86 24.53 24.17 24.04 24.12 24.53 25.40 26.93 25.52 24.25 23.46 23.51 23.93 24.06 24.39 25.51 26.07 27.91 28.92 26.85 25.74 25.77 27.00 29.80 32.45 33.85 34.36 34.69 34.88 35.11 34.79 33.20 29.49 27.48 26.53 25.72 25.31 24.76 24.57 24.88 25.32 25.61 25.70 25.56 26.02 26.44 26.69 26.35 26.96
MSLP
1016.99 1017.19 1017.31 1017.47 1017.67 1017.87 1018.03 1018.19 1018.27 1018.35 1018.51 1018.67 1018.83 1018.91 1019.03 1019.07 1019.15 1019.15 1019.15 1019.11 1019.15 1019.15 1019.15 1019.15 1019.07 1019.07 1019.03 1019.03 1019.03 1018.99 1018.95 1018.91 1018.91 1018.87 1018.83 1018.79 1018.79 1018.79 1018.75 1018.67 1018.59 1018.55 1018.51 1018.43 1018.31 1018.19 1018.15 1018.07 1018.03 1018.03 1018.03 1018.03 1017.99 1017.91 1017.83 1017.75 1017.63 1017.51 1017.43 1017.39 1017.31 1017.31 1017.23 1017.19 1017.15 1017.07 1017.03 1016.91 1016.87
1017.03 1017.19 1017.31 1017.51 1017.71 1017.87 1018.07 1018.23 1018.31 1018.47 1018.59 1018.71 1018.83 1018.95 1019.03 1019.15 1019.23 1019.31 1019.31 1019.27 1019.23 1019.19 1019.19 1019.19 1019.19 1019.19 1019.15 1019.11 1019.07 1019.07 1019.07 1019.07 1019.03 1019.03 1018.99 1018.95 1018.95 1018.91 1018.83 1018.83 1018.75 1018.71 1018.63 1018.59 1018.47 1018.43 1018.35 1018.31 1018.27 1018.23 1018.19 1018.19 1018.19 1018.15 1018.03 1017.95 1017.83 1017.75 1017.67 1017.63 1017.59 1017.47 1017.39 1017.31 1017.31 1017.27 1017.19 1017.07 1017.03
1017.03 1017.19 1017.39 1017.59 1017.79 1017.99 1018.15 1018.31 1018.43 1018.59 1018.71 1018.79 1018.83 1018.91 1019.03 1019.19 1019.27 1019.31 1019.35 1019.39 1019.31 1019.31 1019.31 1019.31 1019.27 1019.23 1019.23 1019.23 1019.19 1019.19 1019.19 1019.19 1019.19 1019.19 1019.15 1019.15 1019.11 1019.03 1018.99 1018.99 1018.91 1018.83 1018.75 1018.75 1018.67 1018.59 1018.55 1018.51 1018.47 1018.39 1018.39 1018.39 1018.43 1018.39 1018.31 1018.19 1018.03 1017.99 1017.95 1017.87 1017.79 1017.75 1017.63 1017.59 1017.51 1017.43 1017.31 1017.27 1017.19
1017.07 1017.27 1017.43 1017.59 1017.79 1017.99 1018.15 1018.31 1018.47 1018.59 1018.71 1018.79 1018.91 1019.03 1019.11 1019.19 1019.31 1019.39 1019.43 1019.47 1019.47 1019.43 1019.39 1019.39 1019.35 1019.31 1019.31 1019.31 1019.31 1019.31 1019.31 1019.27 1019.31 1019.31 1019.31 1019.31 1019.27 1019.23 1019.19 1019.11 1019.03 1019.03 1018.95 1018.91 1018.87 1018.79 1018.75 1018.67 1018.59 1018.59 1018.59 1018.59 1018.63 1018.59 1018.59 1018.47 1018.35 1018.23 1018.19 1018.15 1018.03 1018.03 1017.95 1017.87 1017.75 1017.63 1017.59 1017.51 1017.39
1017.11 1017.27 1017.43 1017.59 1017.75 1017.91 1018.07 1018.23 1018.43 1018.59 1018.67 1018.79 1018.91 1019.03 1019.19 1019.27 1019.35 1019.47 1019.55 1019.55 1019.55 1019.51 1019.47 1019.43 1019.47 1019.47 1019.43 1019.43 1019.47 1019.47 1019.47 1019.39 1019.39 1019.43 1019.47 1019.47 1019.43 1019.39 1019.31 1019.27 1019.23 1019.19 1019.15 1019.11 1019.07 1018.99 1018.91 1018.91 1018.83 1018.79 1018.79 1018.75 1018.79 1018.79 1018.75 1018.71 1018.59 1018.51 1018.43 1018.35 1018.31 1018.23 1018.19 1018.11 1018.03 1017.91 1017.83 1017.75 1017.63
1017.19 1017.31 1017.43 1017.59 1017.75 1017.91 1018.07 1018.19 1018.35 1018.51 1018.63 1018.75 1018.91 1019.11 1019.23 1019.31 1019.43 1019.55 1019.63 1019.67 1019.63 1019.59 1019.55 1019.47 1019.47 1019.47 1019.51 1019.55 1019.59 1019.59 1019.59 1019.59 1019.55 1019.59 1019.59 1019.59 1019.59 1019.55 1019.51 1019.47 1019.47 1019.39 1019.35 1019.31 1019.27 1019.19 1019.19 1019.11 1019.03 1019.03 1018.99 1018.91 1018.91 1018.91 1018.91 1018.79 1018.75 1018.71 1018.67 1018.59 1018.47 1018.43 1018.39 1018.31 1018.23 1018.19 1018.11 1018.03 1017.91
1017.11 1017.31 1017.47 1017.63 1017.79 1017.95 1018.11 1018.23 1018.35 1018.47 1018.63 1018.79 1018.99 1019.19 1019.31 1019.39 1019.51 1019.63 1019.75 1019.75 1019.75 1019.67 1019.63 1019.55 1019.59 1019.59 1019.63 1019.63 1019.71 1019.75 1019.75 1019.75 1019.75 1019.71 1019.75 1019.75 1019.75 1019.71 1019.67 1019.63 1019.59 1019.59 1019.55 1019.47 1019.47 1019.43 1019.39 1019.35 1019.27 1019.23 1019.19 1019.11 1019.07 1019.03 1018.95 1018.91 1018.87 1018.83 1018.79 1018.75 1018.71 1018.63 1018.59 1018.55 1018.47 1018.35 1018.31 1018.31 1018.19
1017.15 1017.31 1017.47 1017.63 1017.83 1017.95 1018.11 1018.23 1018.39 1018.51 1018.67 1018.83 1019.03 1019.19 1019.35 1019.47 1019.59 1019.71 1019.75 1019.79 1019.83 1019.75 1019.75 1019.71 1019.71 1019.71 1019.75 1019.75 1019.79 1019.83 1019.87 1019.83 1019.87 1019.87 1019.87 1019.87 1019.87 1019.87 1019.83 1019.83 1019.75 1019.75 1019.71 1019.67 1019.63 1019.59 1019.59 1019.55 1019.47 1019.47 1019.43 1019.31 1019.27 1019.19 1019.11 1019.03 1018.99 1018.95 1018.91 1018.91 1018.83 1018.75 1018.75 1018.67 1018.59 1018.59 1018.51 1018.47 1018.43
1017.19 1017.39 1017.55 1017.67 1017.83 1017.95 1018.11 1018.23 1018.39 1018.55 1018.75 1018.91 1019.07 1019.19 1019.35 1019.47 1019.63 1019.75 1019.79 1019.87 1019.87 1019.79 1019.75 1019.79 1019.75 1019.75 1019.79 1019.83 1019.87 1019.91 1019.91 1019.95 1019.95 1019.99 1019.99 1019.99 1019.99 1019.99 1019.95 1019.95 1019.91 1019.87 1019.87 1019.79 1019.79 1019.75 1019.75 1019.67 1019.63 1019.59 1019.55 1019.51 1019.47 1019.43 1019.31 1019.19 1019.19 1019.15 1019.07 1019.03 1018.91 1018.83 1018.75 1018.75 1018.71 1018.63 1018.59 1018.59 1018.55
1017.19 1017.39 1017.59 1017.71 1017.87 1017.99 1018.11 1018.23 1018.39 1018.55 1018.75 1018.95 1019.11 1019.23 1019.35 1019.47 1019.63 1019.75 1019.87 1019.87 1019.87 1019.87 1019.87 1019.87 1019.83 1019.83 1019.87 1019.91 1019.95 1019.99 1019.99 1019.99 1020.03 1020.03 1020.03 1020.03 1020.03 1020.03 1020.03 1020.07 1020.03 1020.03 1019.99 1019.95 1019.87 1019.87 1019.87 1019.83 1019.79 1019.75 1019.71 1019.67 1019.63 1019.59 1019.51 1019.43 1019.39 1019.35 1019.31 1019.19 1019.07 1018.95 1018.87 1018.75 1018.71 1018.67 1018.63 1018.59 1018.59
1017.15 1017.31 1017.55 1017.75 1017.87 1017.99 1018.11 1018.27 1018.47 1018.59 1018.79 1018.99 1019.15 1019.27 1019.39 1019.55 1019.67 1019.79 1019.87 1019.91 1019.95 1019.99 1019.99 1019.95 1019.91 1019.87 1019.91 1019.95 1019.99 1019.99 1019.99 1019.99 1020.03 1020.07 1020.07 1020.07 1020.07 1020.07 1020.07 1020.07 1020.11 1020.11 1020.07 1020.07 1020.03 1019.99 1019.91 1019.91 1019.95 1019.91 1019.83 1019.75 1019.71 1019.67 1019.59 1019.59 1019.55 1019.51 1019.47 1019.39 1019.31 1019.19 1019.07 1018.95 1018.83 1018.75 1018.67 1018.59 1018.55
1017.11 1017.31 1017.47 1017.71 1017.83 1017.99 1018.15 1018.31 1018.51 1018.67 1018.87 1019.03 1019.19 1019.31 1019.47 1019.59 1019.71 1019.79 1019.87 1019.99 1020.03 1020.07 1020.03 1019.99 1019.95 1019.99 1019.99 1020.03 1020.03 1019.99 1019.99 1020.03 1020.07 1020.11 1020.15 1020.15 1020.15 1020.15 1020.15 1020.15 1020.11 1020.11 1020.11 1020.11 1020.07 1020.03 1020.03 1020.03 1020.03 1020.03 1019.95 1019.87 1019.79 1019.75 1019.71 1019.67 1019.67 1019.59 1019.59 1019.51 1019.47 1019.39 1019.31 1019.19 1019.03 1018.95 1018.87 1018.75 1018.59
1017.11 1017.27 1017.47 1017.67 1017.83 1017.99 1018.19 1018.39 1018.55 1018.75 1018.91 1019.07 1019.23 1019.39 1019.51 1019.63 1019.71 1019.83 1019.95 1020.07 1020.15 1020.15 1020.11 1020.03 1020.03 1020.03 1020.03 1020.03 1020.03 1020.03 1020.03 1020.07 1020.11 1020.15 1020.19 1020.19 1020.19 1020.19 1020.19 1020.19 1020.19 1020.15 1020.11 1020.11 1020.07 1020.07 1020.07 1020.07 1020.07 1020.03 1020.03 1019.99 1019.87 1019.83 1019.75 1019.75 1019.71 1019.67 1019.63 1019.59 1019.55 1019.51 1019.47 1019.31 1019.23 1019.11 1019.03 1018.91 1018.83
1017.11 1017.27 1017.47 1017.67 1017.87 1018.03 1018.23 1018.43 1018.59 1018.75 1018.95 1019.15 1019.27 1019.43 1019.55 1019.71 1019.75 1019.87 1019.99 1020.11 1020.19 1020.19 1020.15 1020.15 1020.07 1020.03 1020.03 1020.03 1020.03 1020.03 1020.03 1020.07 1020.11 1020.15 1020.19 1020.19 1020.23 1020.23 1020.23 1020.23 1020.19 1020.19 1020.15 1020.15 1020.11 1020.07 1020.07 1020.07 1020.07 1020.07 1020.03 1020.03 1019.91 1019.87 1019.79 1019.75 1019.75 1019.71 1019.67 1019.63 1019.59 1019.55 1019.47 1019.35 1019.31 1019.19 1019.11 1019.07 1018.99
1017.19 1017.31 1017.47 1017.63 1017.87 1018.07 1018.27 1018.47 1018.63 1018.79 1018.99 1019.19 1019.31 1019.47 1019.59 1019.75 1019.83 1019.91 1020.03 1020.15 1020.19 1020.19 1020.19 1020.19 1020.15 1020.03 1019.99 1019.99 1020.03 1020.03 1020.03 1020.11 1020.11 1020.15 1020.19 1020.23 1020.27 1020.27 1020.27 1020.27 1020.23 1020.19 1020.15 1020.15 1020.11 1020.03 1020.03 1020.07 1020.07 1020.03 1020.03 1020.03 1019.95 1019.87 1019.79 1019.75 1019.75 1019.71 1019.63 1019.59 1019.59 1019.51 1019.47 1019.35 1019.31 1019.19 1019.15 1019.11 1019.07
1017.19 1017.31 1017.47 1017.63 1017.87 1018.07 1018.27 1018.47 1018.59 1018.79 1018.99 1019.19 1019.31 1019.47 1019.59 1019.79 1019.87 1019.99 1020.07 1020.19 1020.23 1020.27 1020.27 1020.27 1020.19 1020.15 1020.03 1020.03 1020.03 1020.03 1020.07 1020.15 1020.15 1020.19 1020.27 1020.31 1020.31 1020.31 1020.31 1020.27 1020.23 1020.19 1020.19 1020.15 1020.11 1020.07 1020.03 1020.03 1020.03 1020.03 1020.03 1019.99 1019.91 1019.87 1019.83 1019.75 1019.75 1019.67 1019.59 1019.59 1019.51 1019.47 1019.39 1019.31 1019.23 1019.19 1019.11 1019.07 1019.03
1017.19 1017.31 1017.47 1017.67 1017.87 1018.03 1018.23 1018.43 1018.63 1018.79 1018.99 1019.19 1019.35 1019.51 1019.63 1019.79 1019.95 1020.03 1020.07 1020.19 1020.27 1020.31 1020.31 1020.31 1020.23 1020.19 1020.11 1020.07 1020.03 1020.07 1020.11 1020.15 1020.19 1020.23 1020.31 1020.31 1020.31 1020.35 1020.31 1020.27 1020.23 1020.19 1020.19 1020.15 1020.15 1020.11 1020.07 1020.03 1019.99 1019.99 1019.95 1019.91 1019.87 1019.87 1019.79 1019.75 1019.71 1019.67 1019.59 1019.51 1019.47 1019.39 1019.31 1019.19 1019.15 1019.11 1019.07 1019.03 1018.95
1017.19 1017.31 1017.47 1017.63 1017.87 1018.03 1018.23 1018.43 1018.63 1018.83 1019.03 1019.19 1019.35 1019.51 1019.63 1019.79 1019.95 1020.07 1020.15 1020.19 1020.27 1020.35 1020.39 1020.31 1020.23 1020.19 1020.15 1020.15 1020.11 1020.11 1020.11 1020.15 1020.19 1020.23 1020.27 1020.31 1020.31 1020.31 1020.31 1020.27 1020.19 1020.19 1020.15 1020.15 1020.15 1020.15 1020.07 1020.03 1019.99 1019.95 1019.91 1019.87 1019.87 1019.83 1019.75 1019.75 1019.67 1019.59 1019.55 1019.47 1019.39 1019.31 1019.19 1019.15 1019.07 1019.03 1018.99 1018.91 1018.83
1017.15 1017.31 1017.47 1017.63 1017.87 1018.03 1018.19 1018.43 1018.63 1018.83 1019.03 1019.19 1019.31 1019.47 1019.63 1019.79 1019.95 1020.07 1020.19 1020.23 1020.27 1020.31 1020.35 1020.35 1020.31 1020.23 1020.19 1020.19 1020.19 1020.15 1020.11 1020.15 1020.19 1020.19 1020.23 1020.23 1020.23 1020.27 1020.27 1020.23 1020.19 1020.15 1020.11 1020.11 1020.07 1020.07 1020.03 1019.99 1019.95 1019.91 1019.87 1019.87 1019.83 1019.79 1019.75 1019.75 1019.67 1019.59 1019.51 1019.47 1019.35 1019.27 1019.19 1019.07 1019.03 1018.91 1018.87 1018.79 1018.75
1017.03 1017.23 1017.43 1017.59 1017.79 1018.03 1018.19 1018.43 1018.59 1018.83 1018.99 1019.15 1019.31 1019.47 1019.63 1019.79 1019.95 1020.07 1020.19 1020.27 1020.27 1020.31 1020.31 1020.35 1020.31 1020.27 1020.19 1020.19 1020.19 1020.15 1020.15 1020.15 1020.15 1020.19 1020.19 1020.19 1020.19 1020.19 1020.19 1020.19 1020.15 1020.11 1020.07 1020.07 1020.03 1020.03 1019.99 1019.95 1019.87 1019.87 1019.87 1019.83 1019.79 1019.75 1019.75 1019.71 1019.63 1019.59 1019.51 1019.47 1019.35 1019.23 1019.15 1019.03 1018.95 1018.87 1018.75 1018.67 1018.59
1017.03 1017.19 1017.35 1017.55 1017.75 1017.99 1018.19 1018.39 1018.59 1018.83 1019.03 1019.19 1019.31 1019.47 1019.63 1019.79 1019.91 1020.03 1020.15 1020.19 1020.23 1020.27 1020.31 1020.31 1020.31 1020.27 1020.23 1020.23 1020.23 1020.19 1020.15 1020.15 1020.15 1020.19 1020.19 1020.19 1020.19 1020.19 1020.15 1020.11 1020.07 1020.07 1020.03 1020.03 1019.99 1019.91 1019.91 1019.87 1019.83 1019.79 1019.79 1019.75 1019.75 1019.75 1019.71 1019.67 1019.59 1019.59 1019.47 1019.43 1019.31 1019.19 1019.07 1019.03 1018.91 1018.83 1018.71 1018.59 1018.51
1017.03 1017.19 1017.39 1017.55 1017.75 1017.99 1018.19 1018.39 1018.59 1018.83 1019.03 1019.19 1019.31 1019.47 1019.59 1019.75 1019.87 1020.03 1020.07 1020.15 1020.19 1020.27 1020.31 1020.31 1020.31 1020.27 1020.23 1020.23 1020.23 1020.19 1020.15 1020.11 1020.11 1020.11 1020.11 1020.15 1020.11 1020.07 1020.03 1020.03 1020.03 1020.03 1020.03 1020.03 1019.91 1019.87 1019.83 1019.79 1019.75 1019.75 1019.71 1019.71 1019.71 1019.67 1019.63 1019.59 1019.59 1019.51 1019.47 1019.35 1019.27 1019.19 1019.07 1018.99 1018.91 1018.79 1018.67 1018.55 1018.47
1016.99 1017.19 1017.39 1017.59 1017.75 1017.99 1018.19 1018.39 1018.59 1018.87 1019.03 1019.19 1019.31 1019.47 1019.63 1019.75 1019.87 1019.99 1020.07 1020.19 1020.23 1020.27 1020.31 1020.27 1020.27 1020.23 1020.19 1020.19 1020.19 1020.19 1020.15 1020.15 1020.11 1020.07 1020.03 1020.07 1020.07 1020.03 1019.99 1019.99 1019.99 1020.03 1020.03 1019.99 1019.87 1019.87 1019.79 1019.75 1019.67 1019.63 1019.63 1019.63 1019.63 1019.59 1019.55 1019.55 1019.51 1019.47 1019.39 1019.31 1019.23 1019.15 1019.03 1018.95 1018.83 1018.71 1018.59 1018.47 1018.39
1016.99 1017.19 1017.39 1017.59 1017.79 1017.99 1018.19 1018.43 1018.63 1018.91 1019.07 1019.23 1019.35 1019.47 1019.63 1019.75 1019.87 1019.99 1020.07 1020.19 1020.23 1020.31 1020.31 1020.27 1020.23 1020.19 1020.15 1020.11 1020.11 1020.11 1020.15 1020.15 1020.15 1020.11 1020.07 1020.03 1020.03 1020.03 1019.99 1019.99 1019.99 1019.95 1019.95 1019.91 1019.79 1019.75 1019.71 1019.59 1019.59 1019.55 1019.55 1019.55 1019.55 1019.51 1019.47 1019.47 1019.43 1019.39 1019.31 1019.27 1019.15 1019.03 1018.95 1018.91 1018.79 1018.67 1018.55 1018.47 1018.31
1016.99 1017.19 1017.39 1017.59 1017.79 1018.03 1018.23 1018.47 1018.71 1018.91 1019.07 1019.19 1019.31 1019.47 1019.59 1019.75 1019.87 1019.99 1020.11 1020.19 1020.27 1020.27 1020.27 1020.27 1020.23 1020.19 1020.15 1020.07 1020.07 1020.03 1020.03 1020.11 1020.11 1020.11 1020.11 1020.07 1020.03 1019.99 1019.95 1019.95 1019.91 1019.87 1019.83 1019.75 1019.59 1019.47 1019.43 1019.39 1019.39 1019.43 1019.47 1019.47 1019.47 1019.43 1019.39 1019.39 1019.35 1019.31 1019.27 1019.19 1019.07 1018.99 1018.87 1018.75 1018.67 1018.59 1018.51 1018.43 1018.31
1017.03 1017.23 1017.43 1017.59 1017.79 1018.03 1018.27 1018.47 1018.71 1018.91 1019.03 1019.19 1019.31 1019.47 1019.59 1019.75 1019.87 1019.99 1020.15 1020.23 1020.27 1020.27 1020.27 1020.23 1020.23 1020.19 1020.11 1020.03 1020.03 1020.03 1020.03 1020.03 1020.03 1020.03 1020.07 1020.03 1020.03 1019.99 1019.95 1019.91 1019.87 1019.83 1019.75 1019.63 1019.47 1019.39 1019.31 1019.23 1019.19 1019.23 1019.31 1019.35 1019.35 1019.35 1019.31 1019.31 1019.23 1019.19 1019.19 1019.07 1019.03 1018.91 1018.79 1018.67 1018.55 1018.47 1018.39 1018.31 1018.23
1017.03 1017.23 1017.43 1017.59 1017.83 1018.11 1018.31 1018.47 1018.67 1018.87 1019.03 1019.19 1019.31 1019.47 1019.59 1019.67 1019.83 1020.03 1020.19 1020.27 1020.27 1020.27 1020.23 1020.19 1020.19 1020.11 1020.03 1020.03 1020.03 1020.03 1020.03 1019.95 1019.91 1019.95 1019.99 1019.99 1020.03 1020.03 1019.95 1019.87 1019.79 1019.75 1019.67 1019.51 1019.39 1019.27 1019.19 1019.11 1019.11 1019.07 1019.15 1019.27 1019.27 1019.31 1019.27 1019.23 1019.19 1019.11 1019.07 1018.99 1018.91 1018.83 1018.75 1018.63 1018.51 1018.39 1018.27 1018.19 1018.11
1017.03 1017.23 1017.43 1017.63 1017.87 1018.15 1018.31 1018.47 1018.67 1018.87 1019.03 1019.15 1019.31 1019.43 1019.55 1019.67 1019.87 1020.03 1020.15 1020.23 1020.27 1020.27 1020.27 1020.19 1020.11 1020.03 1019.99 1020.03 1020.03 1020.03 1019.99 1019.91 1019.87 1019.87 1019.87 1019.87 1019.91 1019.91 1019.87 1019.79 1019.75 1019.63 1019.51 1019.35 1019.27 1019.19 1019.11 1019.03 1019.03 1019.03 1019.03 1019.07 1019.15 1019.19 1019.19 1019.19 1019.15 1019.07 1019.03 1018.91 1018.87 1018.75 1018.67 1018.59 1018.47 1018.31 1018.23 1018.11 1018.03
1017.03 1017.27 1017.47 1017.71 1017.99 1018.19 1018.31 1018.47 1018.67 1018.83 1018.99 1019.11 1019.23 1019.35 1019.47 1019.67 1019.87 1019.99 1020.11 1020.19 1020.27 1020.31 1020.27 1020.19 1020.03 1019.99 1019.99 1020.03 1019.99 1019.91 1019.87 1019.87 1019.83 1019.83 1019.83 1019.87 1019.87 1019.87 1019.79 1019.71 1019.63 1019.55 1019.39 1019.23 1019.15 1019.07 1019.03 1018.95 1018.95 1018.95 1018.91 1018.91 1019.03 1019.11 1019.15 1019.15 1019.15 1019.07 1019.03 1018.91 1018.83 1018.75 1018.67 1018.55 1018.43 1018.31 1018.19 1018.07 1017.95
1017.03 1017.27 1017.51 1017.75 1017.99 1018.19 1018.31 1018.51 1018.67 1018.79 1018.91 1019.03 1019.19 1019.31 1019.47 1019.67 1019.83 1019.99 1020.11 1020.19 1020.23 1020.19 1020.15 1020.07 1020.03 1020.03 1020.03 1019.99 1019.91 1019.87 1019.87 1019.79 1019.75 1019.75 1019.83 1019.87 1019.87 1019.83 1019.75 1019.59 1019.51 1019.43 1019.31 1019.15 1019.03 1018.95 1018.91 1018.87 1018.87 1018.87 1018.87 1018.83 1018.91 1018.99 1019.03 1019.07 1019.07 1019.07 1019.03 1018.91 1018.83 1018.75 1018.63 1018.55 1018.43 1018.31 1018.23 1018.07 1017.91
1017.07 1017.31 1017.55 1017.75 1017.99 1018.19 1018.31 1018.47 1018.59 1018.75 1018.91 1019.03 1019.19 1019.31 1019.51 1019.67 1019.83 1019.95 1020.03 1020.11 1020.15 1020.07 1020.03 1019.99 1020.03 1020.03 1019.95 1019.87 1019.83 1019.83 1019.83 1019.75 1019.75 1019.75 1019.79 1019.79 1019.75 1019.71 1019.63 1019.51 1019.47 1019.31 1019.15 1019.03 1018.91 1018.87 1018.83 1018.79 1018.75 1018.75 1018.75 1018.75 1018.79 1018.91 1018.95 1018.99 1018.99 1018.99 1018.95 1018.91 1018.79 1018.71 1018.59 1018.51 1018.43 1018.31 1018.19 1018.03 1017.95
1017.11 1017.31 1017.55 1017.75 1017.99 1018.15 1018.31 1018.43 1018.59 1018.71 1018.83 1018.99 1019.15 1019.31 1019.47 1019.63 1019.75 1019.87 1019.91 1019.95 1019.99 1019.99 1019.99 1019.99 1019.99 1019.95 1019.91 1019.87 1019.83 1019.79 1019.75 1019.75 1019.75 1019.75 1019.75 1019.75 1019.71 1019.63 1019.55 1019.43 1019.35 1019.23 1019.07 1018.95 1018.87 1018.75 1018.75 1018.71 1018.71 1018.67 1018.67 1018.67 1018.71 1018.79 1018.91 1018.91 1018.91 1018.91 1018.87 1018.79 1018.75 1018.63 1018.55 1018.47 1018.31 1018.19 1018.11 1018.03 1017.87
1017.15 1017.35 1017.59 1017.75 1017.95 1018.11 1018.27 1018.39 1018.55 1018.63 1018.79 1018.95 1019.15 1019.31 1019.47 1019.59 1019.67 1019.75 1019.79 1019.87 1019.87 1019.95 1019.99 1019.99 1019.99 1019.95 1019.87 1019.87 1019.79 1019.75 1019.75 1019.71 1019.67 1019.63 1019.59 1019.59 1019.59 1019.51 1019.47 1019.35 1019.27 1019.15 1019.03 1018.91 1018.79 1018.71 1018.67 1018.63 1018.59 1018.59 1018.59 1018.59 1018.59 1018.71 1018.79 1018.83 1018.83 1018.79 1018.75 1018.71 1018.59 1018.55 1018.47 1018.35 1018.23 1018.15 1018.03 1017.91 1017.79
1017.19 1017.43 1017.63 1017.79 1017.95 1018.11 1018.27 1018.39 1018.51 1018.63 1018.79 1018.95 1019.15 1019.27 1019.43 1019.55 1019.67 1019.75 1019.75 1019.79 1019.83 1019.87 1019.87 1019.87 1019.87 1019.79 1019.75 1019.75 1019.71 1019.67 1019.63 1019.59 1019.59 1019.55 1019.51 1019.51 1019.47 1019.47 1019.39 1019.31 1019.19 1019.03 1018.91 1018.79 1018.71 1018.63 1018.59 1018.59 1018.55 1018.51 1018.47 1018.47 1018.51 1018.59 1018.71 1018.75 1018.71 1018.67 1018.63 1018.55 1018.47 1018.35 1018.31 1018.19 1018.11 1017.99 1017.87 1017.75 1017.67
1017.23 1017.47 1017.67 1017.79 1017.95 1018.07 1018.23 1018.35 1018.47 1018.63 1018.83 1018.99 1019.15 1019.23 1019.35 1019.47 1019.59 1019.67 1019.75 1019.71 1019.75 1019.79 1019.79 1019.75 1019.75 1019.71 1019.67 1019.63 1019.59 1019.59 1019.59 1019.55 1019.55 1019.51 1019.47 1019.43 1019.39 1019.35 1019.31 1019.19 1019.07 1018.95 1018.83 1018.75 1018.67 1018.59 1018.55 1018.51 1018.47 1018.47 1018.43 1018.43 1018.47 1018.55 1018.59 1018.59 1018.59 1018.59 1018.51 1018.43 1018.31 1018.23 1018.15 1018.03 1017.95 1017.87 1017.75 1017.63 1017.51
1017.27 1017.47 1017.67 1017.79 1017.95 1018.07 1018.19 1018.31 1018.47 1018.63 1018.83 1018.99 1019.11 1019.19 1019.31 1019.43 1019.51 1019.59 1019.59 1019.63 1019.67 1019.75 1019.75 1019.75 1019.71 1019.67 1019.59 1019.59 1019.51 1019.47 1019.47 1019.47 1019.47 1019.43 1019.39 1019.31 1019.31 1019.31 1019.23 1019.15 1019.03 1018.91 1018.75 1018.71 1018.63 1018.59 1018.51 1018.47 1018.43 1018.39 1018.31 1018.31 1018.39 1018.47 1018.47 1018.47 1018.47 1018.43 1018.35 1018.31 1018.19 1018.07 1018.03 1017.91 1017.79 1017.71 1017.59 1017.47 1017.35
1017.31 1017.47 1017.63 1017.79 1017.95 1018.03 1018.19 1018.31 1018.47 1018.59 1018.75 1018.91 1019.03 1019.15 1019.23 1019.35 1019.47 1019.51 1019.55 1019.55 1019.67 1019.75 1019.75 1019.71 1019.67 1019.63 1019.59 1019.51 1019.47 1019.43 1019.35 1019.35 1019.31 1019.31 1019.27 1019.19 1019.19 1019.19 1019.15 1019.03 1018.95 1018.83 1018.75 1018.67 1018.59 1018.51 1018.47 1018.43 1018.35 1018.31 1018.27 1018.27 1018.31 1018.31 1018.31 1018.31 1018.27 1018.23 1018.19 1018.19 1018.03 1017.95 1017.87 1017.79 1017.63 1017.55 1017.43 1017.31 1017.19
1017.31 1017.47 1017.63 1017.75 1017.87 1018.03 1018.15 1018.31 1018.43 1018.59 1018.71 1018.83 1018.95 1019.03 1019.19 1019.31 1019.47 1019.47 1019.51 1019.51 1019.59 1019.71 1019.75 1019.67 1019.63 1019.59 1019.51 1019.43 1019.39 1019.31 1019.27 1019.19 1019.19 1019.19 1019.19 1019.15 1019.11 1019.11 1019.03 1018.95 1018.87 1018.75 1018.67 1018.59 1018.51 1018.47 1018.39 1018.31 1018.27 1018.19 1018.19 1018.19 1018.19 1018.15 1018.15 1018.15 1018.15 1018.11 1018.07 1017.99 1017.87 1017.79 1017.71 1017.59 1017.47 1017.35 1017.27 1017.11 1016.95
1017.39 1017.55 1017.63 1017.75 1017.87 1018.03 1018.15 1018.27 1018.39 1018.55 1018.67 1018.79 1018.91 1019.03 1019.19 1019.27 1019.35 1019.43 1019.43 1019.47 1019.51 1019.59 1019.63 1019.63 1019.59 1019.47 1019.39 1019.31 1019.31 1019.27 1019.19 1019.11 1019.03 1019.03 1019.03 1019.03 1018.99 1018.91 1018.91 1018.83 1018.75 1018.63 1018.59 1018.51 1018.43 1018.35 1018.31 1018.23 1018.15 1018.07 1018.03 1018.03 1018.03 1017.99 1018.03 1018.03 1018.03 1017.99 1017.91 1017.87 1017.75 1017.63 1017.55 1017.47 1017.31 1017.19 1017.07 1016.95 1016.75
1017.43 1017.55 1017.63 1017.75 1017.87 1017.99 1018.15 1018.27 1018.39 1018.51 1018.63 1018.75 1018.91 1019.03 1019.19 1019.23 1019.27 1019.27 1019.31 1019.31 1019.39 1019.43 1019.47 1019.47 1019.43 1019.31 1019.23 1019.19 1019.19 1019.19 1019.11 1019.03 1018.99 1018.91 1018.91 1018.91 1018.83 1018.75 1018.67 1018.67 1018.59 1018.55 1018.47 1018.39 1018.31 1018.27 1018.19 1018.07 1018.03 1017.95 1017.87 1017.87 1017.87 1017.87 1017.87 1017.87 1017.87 1017.87 1017.79 1017.71 1017.59 1017.47 1017.35 1017.23 1017.15 1017.03 1016.91 1016.75 1016.59
1017.47 1017.55 1017.63 1017.75 1017.87 1017.99 1018.11 1018.27 1018.39 1018.47 1018.59 1018.75 1018.87 1018.99 1019.07 1019.11 1019.19 1019.19 1019.23 1019.27 1019.31 1019.31 1019.31 1019.31 1019.31 1019.23 1019.15 1019.07 1019.03 1019.03 1019.03 1018.99 1018.91 1018.79 1018.75 1018.71 1018.63 1018.59 1018.55 1018.55 1018.47 1018.43 1018.35 1018.31 1018.23 1018.15 1018.03 1017.95 1017.87 1017.79 1017.75 1017.75 1017.71 1017.71 1017.75 1017.75 1017.75 1017.71 1017.63 1017.55 1017.47 1017.31 1017.19 1017.07 1016.91 1016.79 1016.71 1016.59 1016.47
Wind_Speed
6 5 5 5 4 4 3 3 3 3 3 2 2 2 2 2 2 2 2 2 2 2 2 2 2 2 2 3 4 5 5 6 6 7 7 7 7 7 7 7 7 8 8 8 8 7 7 6 5 5 5 5 6 6 6 6 6 7 7 7 6 6 6 7 7 8 8 8 6
7 6 6 6 6 4 3 3 3 3 3 2 2 2 2 2 2 2 2 2 2 2 2 2 2 2 3 4 4 5 5 6 6 7 7 7 7 7 7 7 7 8 8 8 8 7 6 6 5 5 4 5 5 6 6 6 6 7 7 8 6 6 6 6 7 7 7 7 6
6 6 6 5 5 4 4 3 3 3 3 2 2 2 2 2 2 2 2 2 2 2 2 2 2 3 3 4 4 5 5 5 6 6 6 6 7 7 7 7 8 8 8 8 8 7 6 6 5 5 5 5 5 6 6 6 6 6 6 7 6 5 5 6 6 6 6 6 6
6 5 5 5 5 5 4 3 4 3 3 3 2 2 2 2 2 2 2 2 2 2 2 1 2 2 3 4 5 5 5 6 6 6 6 6 7 7 7 7 8 8 8 8 8 8 7 7 5 4 4 5 5 6 5 6 6 5 5 5 5 5 5 5 5 5 5 6 6
5 5 5 5 5 5 4 4 4 4 3 3 2 2 2 2 2 2 2 2 2 2 2 2 2 3 3 4 5 5 5 6 6 6 5 6 6 7 7 8 8 7 7 8 8 8 8 7 5 4 4 4 4 4 5 5 6 5 4 4 4 4 4 5 5 5 5 5 5
5 5 5 5 6 5 4 4 4 4 3 3 3 2 2 2 2 2 2 2 2 2 2 3 3 4 4 4 5 5 5 5 5 5 5 5 6 6 7 7 7 7 7 7 8 8 7 6 5 4 4 4 4 5 5 6 5 5 4 4 4 4 4 4 4 4 4 5 5
6 6 6 6 6 5 5 4 4 3 3 3 3 3 3 3 3 3 2 2 2 2 2 3 3 4 4 4 4 4 4 4 4 4 5 5 5 6 6 6 7 7 7 7 7 7 6 6 4 4 5 5 4 5 6 6 5 5 5 4 4 3 3 3 3 3 4 5 6
6 6 6 6 6 6 5 4 4 4 4 4 4 4 4 4 4 3 3 2 2 2 2 2 3 3 4 4 4 3 3 4 4 4 4 4 4 5 5 5 6 6 6 6 6 6 6 5 4 4 4 4 4 5 6 7 7 6 6 5 4 3 3 2 2 3 3 4 5
6 6 6 5 5 5 5 5 5 5 5 5 5 5 4 4 4 3 3 2 2 2 2 2 3 3 4 4 3 3 3 3 3 3 3 3 4 4 4 4 5 5 5 5 5 5 5 4 4 4 4 4 4 5 6 7 7 7 7 6 5 5 4 3 3 3 3 3 4
7 6 5 5 5 5 5 6 6 6 6 5 5 5 5 5 4 3 2 2 2 2 2 2 3 3 3 3 3 2 2 2 3 3 3 3 3 3 3 3 4 4 4 4 4 4 4 4 4 4 4 4 4 4 5 6 6 6 6 5 6 6 7 5 5 5 4 4 4
8 7 6 5 5 5 5 5 6 6 6 6 5 5 5 4 3 3 2 2 2 2 2 2 2 3 3 2 2 2 2 2 2 2 3 3 3 3 3 3 3 3 3 3 3 3 3 3 4 4 5 4 4 4 4 5 5 5 5 4 5 6 7 7 7 6 6 6 6
8 7 6 6 6 6 6 6 5 5 6 6 5 5 4 3 3 2 2 3 2 2 1 1 2 2 2 2 2 2 2 2 2 2 2 2 2 2 2 2 3 3 2 2 2 2 2 3 3 4 4 4 4 3 3 4 4 4 4 4 4 5 5 6 6 6 6 6 7
8 7 7 6 6 6 6 6 5 5 6 6 5 4 3 3 3 3 3 3 2 1 1 1 2 2 2 1 1 1 2 2 2 2 2 2 2 2 2 2 2 2 2 2 2 2 2 2 3 3 4 4 4 3 3 3 3 3 3 3 4 3 4 4 4 4 5 5 6
7 7 7 7 7 7 6 6 5 5 6 6 5 4 3 3 3 3 2 2 1 1 1 1 1 1 1 1 1 1 1 2 2 2 2 2 2 2 2 2 2 2 2 2 2 2 2 2 2 2 3 3 4 4 3 3 3 3 3 3 3 3 3 3 3 3 3 4 4
7 7 7 6 7 7 7 6 5 6 6 6 5 4 3 3 2 2 2 2 1 1 1 1 0 1 1 1 1 1 1 2 2 2 2 2 1 1 1 1 1 1 1 2 2 2 2 2 2 2 2 3 4 4 4 3 3 3 3 3 3 3 3 3 3 2 2 2 3
8 7 7 6 6 7 6 6 5 5 6 6 5 4 4 3 2 2 2 1 1 1 1 1 0 0 0 1 1 1 1 1 2 2 1 1 1 1 1 1 1 1 1 1 1 2 2 2 2 2 2 3 3 3 4 3 4 4 4 4 3 3 3 3 3 2 2 2 2
8 7 7 7 7 7 7 6 5 5 6 6 5 4 4 3 2 2 2 1 1 1 1 1 1 0 1 1 1 1 1 1 1 1 1 1 0 1 1 1 1 1 1 1 1 1 2 2 2 2 2 2 3 3 3 3 4 4 4 4 4 4 4 3 3 2 2 2 2
8 8 7 7 8 8 7 7 7 6 6 6 5 4 4 3 2 2 1 1 1 0 1 1 1 0 1 1 1 1 1 1 1 1 1 0 0 0 1 1 1 1 1 0 0 1 1 2 2 2 2 2 2 2 3 3 3 4 4 4 4 4 4 4 3 3 3 2 3
8 8 8 8 8 8 8 8 7 7 6 6 5 4 4 3 3 2 1 1 0 0 0 1 1 1 0 1 1 1 1 1 1 0 0 0 0 0 1 1 1 1 1 0 0 0 1 2 2 2 2 2 2 2 3 3 3 4 4 4 4 4 4 4 4 4 3 3 3
9 8 8 8 8 8 8 8 7 6 6 5 5 5 4 3 2 2 1 0 0 1 1 1 1 0 0 0 1 1 0 0 0 0 0 0 0 1 1 1 1 1 1 1 0 0 1 1 2 2 2 2 2 3 3 3 3 4 4 4 4 4 5 5 5 5 4 4 4
9 8 8 8 8 8 8 7 6 6 6 5 5 5 4 3 2 2 1 1 0 1 1 1 1 0 0 0 0 0 0 0 0 1 1 1 1 1 1 1 1 1 1 1 1 1 1 1 2 2 2 2 2 3 3 3 4 4 4 4 4 5 5 5 5 5 5 5 5
8 8 8 8 8 8 8 7 6 6 6 5 5 4 4 3 2 2 1 1 0 1 1 1 1 1 1 1 0 1 1 1 1 1 1 1 1 1 1 1 1 1 1 1 1 1 1 2 2 2 2 2 3 3 4 4 4 4 5 5 5 5 5 5 5 5 6 6 6
8 8 8 8 8 8 8 8 7 6 5 4 4 4 3 3 2 1 1 0 0 1 2 1 1 1 1 1 1 1 1 1 1 1 1 1 1 1 1 1 1 1 1 1 1 1 2 2 2 2 2 2 3 4 4 5 5 5 5 6 6 6 6 5 5 6 6 6 6
9 8 8 7 8 8 8 7 6 5 5 4 4 3 3 2 2 1 0 0 1 1 2 2 1 1 1 1 1 2 1 1 1 1 1 1 1 1 1 1 1 1 1 1 2 3 3 3 2 2 2 2 3 3 4 4 5 5 6 6 7 7 6 6 6 6 6 6 6
10 9 8 8 8 8 7 6 6 5 4 4 3 3 3 2 2 1 0 1 1 2 2 2 2 2 2 2 2 2 2 1 1 1 1 1 1 1 1 1 1 1 2 2 5 6 7 6 5 3 2 2 2 3 3 4 5 5 6 6 7 7 7 7 6 6 6 6 6
10 9 9 8 8 8 7 7 6 5 4 4 3 3 3 2 2 1 1 1 2 2 3 2 2 2 2 2 2 2 1 1 1 1 1 1 1 1 2 2 2 2 2 3 6 8 9 10 9 7 4 2 2 3 4 4 5 5 6 6 6 7 7 8 7 7 6 6 6
10 9 9 8 8 8 7 6 5 5 4 4 3 3 3 2 2 1 1 2 2 3 3 3 3 3 3 2 2 2 2 2 2 2 2 2 1 1 2 2 2 2 3 5 8 9 10 10 11 10 8 4 3 3 3 4 5 5 6 6 6 7 7 8 8 8 7 6 6
9 9 9 8 8 7 7 6 5 5 4 4 3 3 3 2 2 1 1 2 3 3 3 3 3 3 2 2 2 2 2 2 2 2 2 2 2 2 2 2 2 3 4 7 9 10 11 11 11 12 11 8 4 3 3 4 5 5 5 6 6 7 7 8 8 8 8 8 7
10 9 9 9 8 7 7 6 6 5 4 4 3 3 3 2 2 1 2 3 3 3 3 3 3 2 2 2 2 2 2 2 2 2 2 1 1 2 2 3 3 4 6 9 10 11 11 12 12 13 13 12 6 4 3 3 4 5 5 5 6 6 7 8 8 8 8 9 9
9 9 9 8 8 7 7 6 6 5 4 4 4 3 3 2 2 2 3 3 4 4 4 3 2 2 2 2 2 2 2 2 2 2 1 1 1 2 3 3 3 4 6 9 11 11 12 12 13 13 14 14 9 5 3 3 3 4 5 5 6 7 8 8 9 9 9 9 9
9 9 8 8 7 7 7 6 5 5 4 4 4 3 3 2 2 3 3 4 4 4 3 2 2 2 2 3 2 2 2 2 1 1 1 1 2 3 3 3 3 4 6 10 11 12 13 13 14 14 15 15 10 6 4 4 4 4 5 6 6 7 8 8 8 9 9 9 9
9 8 8 8 7 7 6 6 5 5 4 4 4 3 3 3 3 3 3 3 3 3 2 2 2 2 2 2 2 2 2 1 1 1 1 2 2 3 3 4 3 4 7 10 12 13 13 14 15 15 16 16 12 7 5 4 4 5 5 6 7 8 8 8 8 8 9 9 9
9 8 8 7 7 7 6 6 5 5 4 4 3 3 3 2 2 2 2 2 2 2 2 3 3 2 2 2 2 2 2 1 2 2 2 3 3 3 3 4 3 5 7 11 13 14 14 15 15 16 17 17 12 8 5 4 4 5 5 6 7 7 8 8 8 8 9 9 8
8 8 7 7 7 6 6 6 5 5 4 4 3 3 3 2 2 2 2 2 2 2 2 2 2 3 3 2 2 2 2 2 2 3 3 3 3 3 3 3 3 5 9 12 13 14 15 16 16 17 17 17 11 7 5 5 5 5 6 6 7 7 8 8 8 9 9 9 8
8 8 7 6 6 6 6 6 5 5 4 3 3 3 3 2 3 3 2 2 2 2 2 2 2 2 2 2 2 2 2 2 2 3 3 2 2 3 3 4 4 7 10 13 14 15 16 16 17 17 17 15 9 6 5 6 5 6 7 7 8 8 8 8 8 8 8 8 8
8 7 7 6 6 6 6 6 5 5 4 3 3 3 2 2 2 2 2 2 2 1 2 2 2 2 2 2 2 2 2 2 2 3 3 3 2 3 4 4 5 7 10 13 14 15 16 17 17 18 17 13 7 5 5 5 5 6 7 8 8 8 8 8 8 8 8 8 8
8 7 7 6 6 6 6 6 5 5 4 4 3 3 3 2 2 2 2 2 1 1 2 2 2 2 2 2 2 2 2 2 2 3 3 3 3 4 4 5 5 7 10 13 14 15 16 17 18 18 16 10 7 5 5 5 5 5 6 7 8 8 8 7 7 7 8 8 8
7 7 6 6 6 6 6 5 5 5 4 3 3 2 2 2 2 2 2 2 2 2 2 2 2 2 3 3 3 3 3 3 3 3 4 4 4 4 5 5 6 7 8 12 14 16 17 18 18 18 15 10 7 6 5 5 5 5 6 7 7 7 7 7 6 6 7 8 10
6 6 6 6 6 6 6 5 5 4 4 3 2 2 2 2 2 2 2 2 2 2 2 2 3 3 3 3 3 3 3 3 3 4 4 4 5 5 6 6 6 7 8 11 14 16 17 18 19 18 17 12 7 5 5 5 5 5 6 6 6 7 7 6 6 6 6 7 12
6 6 6 6 6 6 6 5 5 4 3 3 2 2 2 2 2 2 2 2 2 2 3 3 3 3 3 3 3 3 3 4 4 4 4 5 6 7 7 6 7 7 9 12 15 17 18 18 19 19 17 11 7 5 5 5 5 6 6 6 6 6 6 6 6 6 6 7 9
5 5 5 6 5 5 5 5 4 3 3 3 3 3 2 2 2 2 2 2 2 2 2 2 3 3 3 3 3 3 4 4 4 5 5 6 6 7 7 6 7 8 9 10 14 16 18 19 19 19 17 12 7 5 4 4 5 6 6 6 6 6 6 6 6 6 6 6 6
Wind_Direction
101 100 99 99 97 94 89 83 78 75 75 74 73 70 65 64 56 48 43 48 57 58 52 41 27 19 20 29 35 34 31 29 28 28 28 28 25 22 20 20 20 20 18 15 12 11 12 15 21 27 29 26 20 15 11 7 8 13 18 21 18 16 16 20 21 20 18 17 16
105 104 104 103 103 101 97 93 85 78 74 71 76 76 75 72 68 60 50 49 55 58 53 40 23 19 23 30 35 37 36 34 31 29 26 25 23 22 21 19 20 20 20 18 15 14 13 13 20 25 28 27 23 17 11 5 8 13 18 19 17 14 13 16 16 16 15 13 11
113 112 111 111 111 111 109 106 99 91 83 76 74 75 75 75 77 73 68 63 60 59 56 43 24 23 28 33 35 37 38 38 35 31 27 23 22 21 20 19 18 18 19 19 17 15 12 12 18 24 27 27 25 20 13 3 6 12 18 19 16 14 13 12 10 11 12 11 8
118 118 118 118 118 118 118 116 110 105 99 92 82 77 76 78 81 79 76 68 61 59 59 57 38 33 34 40 38 37 37 38 38 35 30 24 22 21 20 20 19 17 16 16 15 14 12 12 17 20 23 26 27 23 14 4 5 10 16 18 18 17 13 9 8 9 11 8 6
116 115 115 115 115 115 115 113 113 112 112 109 99 92 88 88 86 79 71 64 61 62 64 63 56 47 43 45 43 39 36 37 39 37 32 27 24 21 20 20 19 16 14 14 14 13 12 12 15 16 16 20 23 20 12 5 8 9 12 15 18 18 15 10 7 9 10 8 5
112 107 105 104 105 104 104 104 109 112 113 108 102 98 92 86 81 77 75 72 65 58 57 60 60 55 50 46 43 40 38 36 37 37 35 30 25 23 22 20 17 15 14 13 13 12 12 14 14 12 9 13 15 11 8 8 11 13 13 14 15 16 16 11 6 7 10 10 6
112 107 105 103 104 104 103 103 104 103 99 94 92 91 88 83 83 82 80 73 59 52 51 58 62 60 56 50 45 41 38 36 36 37 37 33 29 26 24 20 17 15 14 13 13 12 12 16 15 9 6 7 7 3 1 5 9 13 14 12 11 13 14 10 5 8 12 12 7
108 108 108 109 109 110 111 111 105 98 91 88 89 89 88 84 85 84 79 68 56 53 54 58 63 65 64 59 52 46 41 40 38 36 36 36 33 29 24 22 18 15 12 12 13 13 12 14 15 9 3 3 3 358 356 359 4 7 8 5 4 6 10 10 8 12 17 16 10
110 109 109 110 112 114 115 114 108 103 100 96 96 94 91 87 85 83 78 73 66 60 58 60 64 65 65 63 58 52 48 47 45 40 36 37 37 33 28 24 20 15 11 10 13 13 13 13 12 7 2 2 0 354 353 357 2 3 2 358 357 357 0 5 11 15 20 23 16
119 118 116 114 116 116 114 110 107 105 103 101 98 95 92 90 89 89 88 87 72 59 56 58 63 63 63 61 59 57 54 55 53 47 41 38 38 37 34 28 24 18 11 7 10 12 13 12 8 2 357 357 355 350 350 355 1 1 358 354 353 353 353 354 0 5 9 12 13
126 125 124 124 124 119 112 106 103 102 100 98 94 90 88 89 92 96 96 88 72 61 56 60 67 67 65 61 61 58 56 57 57 54 46 39 37 37 35 31 28 22 14 5 9 13 15 13 7 359 353 349 350 349 349 353 359 359 355 349 352 352 351 349 351 354 356 356 357
129 127 127 127 125 117 110 105 102 100 97 95 91 87 85 86 90 92 90 82 76 70 60 60 71 73 70 63 62 60 59 60 61 57 51 40 34 32 31 29 26 20 13 2 7 15 18 14 7 359 351 343 342 343 345 350 356 356 352 346 351 351 348 343 345 347 349 350 350
128 127 127 127 122 115 109 106 104 101 98 96 93 88 85 78 75 76 79 81 84 80 66 59 72 76 77 70 64 60 62 62 62 61 54 41 34 30 28 23 20 15 8 357 5 16 20 12 6 358 349 340 336 335 338 346 352 352 347 343 344 341 336 331 332 338 344 349 347
127 128 128 126 120 114 111 110 108 106 103 100 96 91 85 73 66 68 74 83 87 85 66 58 72 82 89 89 80 72 67 69 66 63 55 41 33 30 25 16 11 7 0 350 0 13 17 8 360 353 346 339 333 331 333 342 346 345 341 336 332 325 318 313 317 328 339 344 341
128 128 128 124 119 116 115 115 114 111 108 105 101 96 89 79 69 67 69 74 71 58 40 44 55 82 96 96 91 85 79 74 73 67 59 41 27 22 21 9 0 355 352 348 354 4 8 1 351 346 343 338 333 332 334 340 341 338 333 327 318 311 305 300 305 315 326 331 329
131 130 127 122 119 118 118 118 117 113 111 109 107 103 98 92 79 72 65 60 46 26 19 10 340 3 72 83 87 85 81 78 75 74 67 46 22 9 3 359 345 338 339 346 348 351 349 346 342 340 339 335 332 332 334 337 336 333 328 321 314 307 300 296 298 300 302 307 311
133 131 127 123 122 120 119 117 115 114 113 113 110 107 104 101 91 80 74 64 47 21 355 316 308 340 40 56 69 74 75 76 77 80 80 74 26 347 331 324 314 310 314 338 348 346 342 336 334 335 335 334 331 331 331 333 331 327 322 318 313 308 303 301 297 291 288 290 289
135 132 128 125 123 121 119 116 114 114 114 114 111 108 105 103 100 97 89 76 64 33 325 298 299 342 55 61 62 72 78 81 83 92 111 145 184 256 277 278 277 280 284 300 348 346 338 330 329 330 332 333 330 328 328 328 325 320 317 314 311 308 306 304 299 293 287 283 278
135 132 129 126 124 122 119 116 115 114 114 113 110 107 105 105 107 105 98 84 63 279 272 282 296 323 44 78 65 65 74 92 102 117 166 197 213 242 260 268 271 274 271 266 262 318 322 322 323 326 330 331 330 329 327 325 320 316 313 311 310 308 307 305 302 297 290 283 277
135 133 131 128 125 122 119 117 116 115 114 113 110 110 109 111 110 109 110 128 239 262 260 265 276 299 6 55 54 49 46 117 139 162 214 234 252 259 262 266 273 273 268 254 252 281 306 312 315 319 325 331 332 330 326 323 319 315 312 309 308 306 305 304 302 299 294 287 279
134 132 130 127 124 121 119 118 116 116 114 113 113 114 116 116 114 120 135 166 241 268 268 259 241 221 156 65 57 9 291 259 204 197 211 230 250 257 259 264 269 273 277 276 272 282 293 299 305 312 322 333 333 329 326 323 319 314 311 309 307 305 303 302 301 298 294 289 283
132 130 127 124 122 120 118 116 115 115 114 114 115 116 117 117 122 133 146 160 253 274 275 269 247 209 177 167 189 236 260 265 242 221 213 217 240 254 262 265 275 293 302 298 292 292 296 301 307 317 328 339 334 331 327 325 321 317 314 310 308 305 303 301 299 296 292 288 283
130 126 124 121 119 117 116 114 113 113 113 114 115 117 118 121 126 131 133 138 266 276 278 280 277 251 216 197 202 219 239 261 268 260 243 235 254 274 285 291 308 306 296 281 282 287 298 310 316 324 334 340 334 330 326 324 321 318 315 313 310 307 304 301 297 295 291 288 284
127 125 123 120 118 116 115 114 114 115 116 119 120 121 121 122 123 118 110 288 261 265 266 271 271 264 251 232 219 217 218 228 258 278 287 293 291 297 302 309 304 281 269 267 291 308 316 323 322 325 329 332 327 322 319 318 317 315 313 312 310 309 306 301 297 294 292 289 287
126 125 123 121 119 118 117 118 119 121 123 125 124 122 120 122 123 125 154 259 261 257 254 251 254 254 254 253 241 228 213 198 202 230 268 292 298 304 305 305 289 269 260 268 302 314 322 328 328 327 323 320 315 313 312 310 308 308 307 307 308 307 306 304 300 296 291 288 286
126 125 124 123 121 121 122 124 125 126 126 125 120 119 121 124 126 138 187 248 256 254 250 245 244 244 245 248 247 242 230 204 192 192 207 241 278 293 296 290 278 265 268 280 304 314 321 325 327 327 325 316 312 310 308 306 304 303 304 304 305 305 305 305 303 300 295 290 287
127 127 126 124 123 125 128 129 128 127 125 123 124 126 129 128 127 141 214 248 254 256 252 246 241 236 235 235 234 234 229 223 207 198 194 200 229 257 272 273 266 262 273 291 305 313 318 322 324 326 326 321 315 309 307 305 304 305 305 305 304 304 303 302 302 301 300 298 294
130 129 128 126 127 130 131 130 128 128 129 131 134 135 134 129 132 166 230 249 255 256 255 249 239 233 227 225 222 219 218 219 215 207 199 194 210 231 248 258 258 266 282 297 309 315 318 321 322 323 323 322 317 309 305 304 305 306 306 306 304 303 301 300 301 301 302 301 300
131 130 130 130 132 134 134 133 134 136 139 139 139 136 134 133 153 197 231 247 252 253 249 245 237 230 225 224 225 222 220 220 214 204 194 195 220 238 247 253 255 273 290 303 311 315 318 319 320 320 320 321 318 313 307 302 303 303 303 303 302 300 300 299 299 299 300 300 301
132 132 133 134 135 137 138 140 141 142 141 138 135 134 136 146 179 212 230 240 243 244 243 237 225 221 225 228 229 229 229 227 213 192 177 192 241 254 256 257 255 273 291 304 311 315 317 318 318 317 317 317 316 313 307 299 297 297 297 296 295 294 293 293 294 294 295 296 298
134 134 135 136 137 139 141 143 143 141 137 133 132 136 145 166 197 217 227 230 234 237 240 238 225 225 230 232 226 224 225 226 212 191 186 209 243 253 258 260 261 276 292 304 310 313 315 315 315 314 314 314 313 311 306 299 294 291 289 288 287 286 286 287 288 288 289 290 293
134 134 135 136 138 140 142 143 141 137 134 132 136 145 161 184 205 216 219 218 223 232 241 245 236 236 240 243 238 231 226 220 219 217 219 225 240 252 261 269 270 281 294 304 309 311 312 312 311 311 311 312 310 309 305 298 291 287 283 281 279 279 279 281 282 283 283 285 287
133 133 134 136 139 139 140 139 137 135 133 134 142 156 174 195 211 222 226 223 223 228 233 237 234 235 238 240 242 241 237 230 228 231 233 234 242 254 267 275 275 285 294 303 306 308 309 309 309 309 309 310 308 308 305 297 291 286 283 280 277 276 275 275 277 279 281 282 283
131 132 134 137 138 138 137 136 134 133 134 138 152 167 182 197 216 230 237 234 227 226 227 228 225 225 224 222 219 223 229 236 233 233 234 237 246 260 271 277 276 286 293 300 303 305 307 307 307 307 307 308 307 306 303 296 291 287 283 280 278 276 275 275 275 277 278 279 281
132 134 136 138 138 137 136 135 134 133 137 147 164 179 190 200 212 220 224 225 225 229 236 241 235 232 231 228 216 215 222 235 240 241 242 245 255 267 275 276 276 285 292 297 301 303 304 305 305 305 305 306 305 302 297 293 289 285 282 280 279 278 277 277 277 277 277 278 278
135 137 139 139 138 137 136 136 136 139 146 158 172 185 195 203 210 212 213 212 217 234 248 255 256 255 254 254 244 234 231 233 243 251 256 258 264 270 274 276 277 284 290 295 298 300 302 302 302 303 303 303 300 296 292 289 286 283 281 281 280 279 279 278 278 277 278 277 276
137 139 140 139 139 138 138 138 140 145 154 167 176 185 192 200 212 215 209 195 205 230 249 256 259 258 256 252 250 246 241 236 245 258 264 266 266 268 272 275 276 281 286 291 295 297 299 300 300 300 301 299 296 292 289 286 284 283 281 280 279 278 278 278 278 277 277 276 276
139 140 140 140 140 140 140 140 144 151 160 170 175 179 182 188 205 213 207 187 196 217 237 248 249 247 245 241 245 249 251 248 250 257 263 265 263 264 268 273 276 278 283 288 292 295 296 297 298 298 298 295 292 289 287 285 283 281 280 279 279 277 276 277 277 277 276 275 280
140 142 142 142 142 142 143 144 149 155 161 165 167 170 175 182 199 207 204 192 193 205 219 231 238 241 242 245 252 258 261 260 256 257 259 262 262 265 268 272 276 278 282 286 290 293 294 295 296 296 296 293 290 287 283 282 280 279 278 278 279 278 276 275 276 276 277 277 283
142 143 142 141 142 144 145 148 152 155 156 155 159 168 180 193 203 207 208 204 203 206 212 222 234 242 249 257 260 265 269 270 266 262 261 262 266 271 274 275 277 278 282 285 288 291 292 293 294 294 294 292 287 281 277 275 276 276 275 275 276 277 277 275 274 275 277 278 284
141 141 140 139 140 141 144 148 150 151 151 152 163 174 185 193 200 207 211 214 216 218 220 229 244 254 262 269 269 271 274 277 274 270 267 268 271 275 277 277 278 279 280 283 286 288 289 291 291 291 291 288 284 276 271 269 271 272 272 272 273 275 277 278 276 275 276 277 279